Location: Newark
(23.1300°N, 73.6109°E)
Time: 22:32:37
(UTC+00:00)

NOAA 18 - Pass Details

Date: 21 June 2021
Orbit: 840 x 861 km, 99.0° (Epoch: 27 July)

Event Time Altitude Azimuth Distance (km) Brightness Sun altitude
Exits shadow 16:49:35 55° 323° (NW) 1,017 5.8 -32.6°
Drops below altitude 10° 16:53:56 10° 343° (NNW) 2,491 8.4 -33.2°
Sets 16:56:19 0° 345° (NNW) 3,431 9.3 -33.6°
